CZ-4C R/B, 68761

Orbit data source: Space-Track

CZ-4C R/B, 68761 is space debris in SSO originally from a launch on Fri, 17 Apr 2026 UTC launched from the Jiuquan Satellite Launch Center, China (JSC). Debris objects in space refer to the collection of defunct objects orbiting the Earth. Examples of debris include non-operational satellites, rocket bodies, and fragments generated from explosions, collisions, or faulty payload assembly.

Loading next visibility...
Identifier
68761, 2026-084B
Orbit
SSO
Country
Flag of CNCN / PRC
Related business
Manufacturer
SAST
Mission
Spacecraft
Bus & Motor
CZ-4 STAGE 3, Unknown motor
Mass
~1,000 kg wet, ~1,000 kg dry
Launch date (UTC)
2026-04-17 (2 months ago)
Launch vehicle
Unknown
Launch site
Jiuquan Satellite Launch Center, China (JSC)
Object type
Payload
Rocket body
Debris
Shape & HBR
Unknown shape, 2.9 m
Radar Cross Section
Large (>1 m²)

Expand to show TLE details & history
Last TLE update: 12 hours ago

TLE from 12 hours ago
0 CZ-4C R/B
1 68761U 26084B   26171.47948227  .00001172  00000-0  11583-3 0  9990
2 68761  98.2890 248.8671 0122767 194.2663 165.5075 14.88672215  9572
Epoch: 2026-06-20T11:30Z
TLE epoch observation values (Epoch: 2026-06-20T11:30:27.268Z)
Latitude
-0.00003°
Longitude
167.55998°
Altitude
688.155 km
Speed
7.468 km/s
True Right ascension
16h 35m 28s
True Declination
0° 00' 00"
Sunlit
Object was in full shadow at epoch
Visualization orbit readout
Latitude
Unknown
Longitude
Unknown
Altitude
Unknown
Speed
Unknown
Apparent Right ascension
Unknown
Apparent Declination
Unknown
Sunlit
N/A
Visualization observer readout
Local Sidereal Time
10:18:50
Azimuth
Unknown
Elevation
Unknown
Doppler factor
Unknown
Orbital elements
Apogee altitude
684.787 km
Perigee altitude
513.472 km
Semi-major axis
6,977.267 km
Eccentricity
0.01228
Inclination
98.289°
RAAN
248.8671°
Arg. of periapsis
194.2663°
True anomaly
165.8544°
Mean anomaly
165.5075°
Eccentric anomaly
165.68146°
Mean motion
3.72405 °/min
Orbital period
96.67 mins
BSTAR
0.00011583
Loading maneuver chart data...
Computing Atmospheric mass density...
Loading historical data...
Loading historical data...
Loading historical data...
Loading historical data...
Loading historical data...
Loading historical data...
Loading historical data...
Other satellites on launch #84 in the year 2026 (2026-04-17 UTC)

Documentation

Showing up to 5 results
|